Regional Weather Roundup
Issued by NWS Wakefield, VA

Home | Current Version | Previous Version | Text Only | Print | Product List | Glossary Off
Versions: 1 2 3 4 5 6 7 8 9 10 11 12 13 14 15 16 17 18 19 20 21 22 23 24 25 26 27 28

000
ASUS41 KAKQ 302115
RWRAKQ

REGIONAL WEATHER ROUNDUP
NATIONAL WEATHER SERVICE WAKEFIELD VA
500 PM EDT MON MAY 30 2016

Note: "fair" indicates few or no clouds below 12,000 feet with no
significant weather and/or obstructions to visibility. * = Denotes
station may not report precipitation (e.g., rain,snow,etc.),
thunder or fog.

VAZ042-051-052>054-056-302200-
NORTHERN VIRGINIA

CITY           SKY/WX    TMP DP  RH WIND       PRES   REMARKS
WASH NATIONAL  CLOUDY    78  71  79 S10       29.95F
DULLES         PTSUNNY   80  67  64 SE8       29.94F
FORT BELVOIR   FAIR      77  70  79 SE7       29.95S
QUANTICO       LGT RAIN  76  71  85 S5        29.96F
FREDERICKSBRG* FAIR      78  71  78 SE7       29.94F
STAFFORD*      FAIR      76  69  79 SE3       30.00S
WARRENTON      FAIR      81  65  58 SE6       29.94F
CULPEPER*      FAIR      81  70  70 SE5       29.95F
MANASSAS*      SUNNY     81  72  74 S8        29.95S
LEESBURG*      FAIR      84  70  61 S7        29.95F
WINCHESTER     FAIR      84  59  42 SE3       29.95S
FRONT ROYAL*   FAIR      82  64  54 CALM      29.93F
LURAY*         FAIR      84  63  48 N3        29.95F
$$

VAZ048-049-060>072-079>083-302200-
CENTRAL AND SOUTH CENTRAL VIRGINIA

CITY           SKY/WX    TMP DP  RH WIND       PRES   REMARKS
RICHMOND       LGT RAIN  71  70  96 SE7       29.97S FOG
CHESTERFIELD*  MOCLDY    72  61  68 SE6       29.99S
PETERSBURG*    LGT RAIN  72  72 100 CALM      29.98F
HANOVER        FAIR      74  70  87 E3        29.98F
TAPPAHANNOCK*  RAIN      73  73 100 SE5       29.98S
QUINTON*       MOCLDY    70  70  99 S8        29.98S
CHARLOTTSVILLE FAIR      82  65  56 CALM      29.95F
GORDONSVILLE*  FAIR      80  70  72 S6        29.95S
ORANGE*        FAIR      81  68  65 NE6       29.98S
LOUISA*        FAIR      81  73  78 SE6       29.96S
BUMPASS*       FAIR      76  71  85 E3        29.97S
FARMVILLE*     FAIR      80  71  75 E3        29.95S
CREWE*         FAIR      76  75  99 CALM      29.96F
FORT PICKETT*  NOT AVBL
CHASE CITY*    FAIR      78  72  81 E3        29.96S
CLARKSVILLE*   FAIR      79  72  78 E7        29.95F
SOUTH HILL*    FAIR      74  70  86 E5        30.02F
LAWRENCEVILLE* FAIR      73  71  93 NE3       29.97S
EMPORIA*         N/A     70  70 100 NE3       29.98S
$$

VAZ088>098-302200-
SOUTHEAST VIRGINIA

CITY           SKY/WX    TMP DP  RH WIND       PRES   REMARKS
NORFOLK        RAIN      72  69  90 CALM      29.98R FOG
VIRGINIA BEACH CLOUDY    79  70  74 SE7       29.97S
NORFOLK NAVAL  HVY RAIN  72  71  97 NE6       29.99S VSB 1/2
WEST POINT*    CLOUDY    71  70  96 SE6       29.99S
SALUDA*        CLOUDY    70  70 100 SE9       29.98S
NEWPORT NEWS   LGT RAIN  71  69  93 NE5       29.99S
LANGLEY AFB    HVY RAIN  72  72 100 N6        29.99S VSB 1/2
FORT EUSTIS    LGT RAIN  71  57  59 E3        29.98R
WILLIAMSBURG*    N/A     73  72  94 CALM      30.01R
HR EXEC AP*      N/A     73  70  88 N5        29.99F
FRANKLIN*      LGT RAIN  71  69  95 NE8       29.98R
US460-WAKEFLD  RAIN      70  69  97 VRB5      29.98S FOG
$$

VAZ020-022-025-037-045-302200-
WEST CENTRAL AND SOUTHWEST VIRGINIA

CITY           SKY/WX    TMP DP  RH WIND       PRES   REMARKS
STAUNTON*      FAIR      79  59  50 CALM      29.98F
WAYNESBORO*    MOCLDY    78  61  55 E8        29.98F
HOT SPRINGS VA PTSUNNY   72  58  62 SE6       30.08S
LYNCHBURG      PTSUNNY   81  65  58 E3        29.97F
DANVILLE       FAIR      84  67  56 VRB5      29.94F
SOUTH BOSTON*  FAIR      83  70  65 N3        29.94F
MARTINSVILLE   FAIR      82  64  53 NE5       29.97F
ROANOKE        FAIR      83  58  42 E6        29.98F
BLACKSBURG     FAIR      80  63  56 E6        30.04S
DUBLIN*        FAIR      82  59  44 CALM      30.02S
MARION*        CLOUDY    74  65  72 W7        30.06S
HILLSVILLE*    PTSUNNY   78  55  44 NE5       30.02F
RICHLANDS*     MOCLDY    78  43  28 NW7       30.05S
WISE*          FAIR      81  54  39 N10       30.08S
ABINGDON*      PTSUNNY   82  58  43 NW10G20   30.01S
$$

MDZ021>025-VAZ099-100-302200-
SOUTHERN MARYLAND AND THE DELMARVA PENINSULA

CITY           SKY/WX    TMP DP  RH WIND       PRES   REMARKS
PATUXENT RIVER CLOUDY    71  68  90 S6        29.97F
BAY BRIDGE APT CLOUDY    73  70  88 S6        29.96S
LEONARDTOWN    CLOUDY    70  68  94 SE3       29.99S
DOVER          DRIZZLE   73  73 100 S7        29.95F
GEORGETOWN     LGT RAIN  73  71  93 S8        29.97F FOG
EASTON         NOT AVBL
CAMBRIDGE      CLOUDY    70  70 100 S5        29.97S
SALISBURY      RAIN      71  69  93 S7        29.98S FOG
OCEAN CITY     LGT RAIN  68  67  96 SE5       29.98F FOG
WALLOPS ISLAND HVY RAIN  70  69  97 W8        30.00R VSB 3/4
ACCOMACK*      RAIN      70  64  83 CALM      29.99F
$$

NCZ012>017-030>032-302200-
NORTH CENTRAL AND EASTERN NORTH CAROLINA

CITY           SKY/WX    TMP DP  RH WIND       PRES   REMARKS
ROANOKE RAPIDS MOCLDY    77  70  78 N10       29.95S
RALEIGH        PTSUNNY   73  70  90 NE8       29.93S THUNDER
ELIZABETH CITY LGT RAIN  74  71  91 SE9       29.97S
AHOSKIE*       CLOUDY    76  72  85 E6        29.96S
EDENTON*       DRIZZLE  N/A N/A N/A SE5       29.96F
CURRITUCK*     RAIN      75  73  91 S3        29.98S
KILL DEVIL HLS DRIZZLE   73  71  93 S5        29.97S
MANTEO         NOT AVBL
CAPE HATTERAS  HVY RAIN  73  71  93 S16G28    29.97S FOG
TARBORO*       MOCLDY    78  72  80 SE6       29.94F
GOLDSBORO      NOT AVBL
WASHINGTON     LGT RAIN  73  71  93 SE5       29.94F
GREENVILLE     CLOUDY    77  72  83 SE8       29.95F
NEW BERN       MOSUNNY   78  70  76 E8        29.94F
WILMINGTON     CLOUDY    79  67  66 SE9       29.89F
$$

VAZ048-302200-
ELSEWHERE

CITY           SKY/WX    TMP DP  RH WIND       PRES   REMARKS
HARRISBURG PA  PTSUNNY   85  63  47 VRB5      29.91F
BALTIMORE      CLOUDY    75  67  76 S5        29.95S
ANNAPOLIS      CLOUDY    72  69  90 S12       29.96S
ANDREWS AFB    LGT RAIN  73  70  88 SE6       29.96S
PHILADELPHIA   CLOUDY    77  67  71 S10       29.95S
HENDERSON NC   MOSUNNY   74  68  83 NE7       29.96S
GREENSBORO     MOSUNNY   84  63  49 E10       29.94S
ROCKY MOUNT    CLOUDY    80  72  76 E3        29.93F
$$

VAZ100-302200-
MARINE

STATION/POSITION TIME  TEMP    WIND        PRES    WAVE   SWELL
                       AIR SEA DIR/SP/G            HT/PER HT/PER
                 (UTC) (F)     (DEG/KT/KT) (MB)    (FT/S) (FT/S)
BRANDYWINE LGT   2000   66     180/ 15/ 15 1015.3F
CAPE MAY NJ      2000   68 70  170/  8/ 11 1015.1F
LEWES DE         2000   71 66  180/  3/  5 1015.3F
15NM E FENWICK I 2050   67 65              1015.3F   4/ 7
OCEAN-CITY-INLET 2000   67 58  140/  2/  3 1015.8F
WACHAPREAGUE VA  2000   72 76   CALM  /  2 1015.2F
THOMAS POINT MD  2100   70 69  190/ 13/ 14 1015.8F
GOOSES REEF MD   2100   70 69  170/ 12/ 14 1015.8F   1/ 3
COVE POINT MD    2000   68     200/ 12/ 14 1015.7F
SOLOMONS ISLAND  2000   71 67  160/  8/  9   N/A
BISHOPS HEAD MD  2000   71 76  170/ 11/ 12 1015.4S
PINEY POINT MD   2000          160/ 12/ 12   N/A
POTOMAC MD       2100   69 71  170/ 10/ 12 1014.0F   1/ 2
CAMBRIDGE MD     2000   72 70  160/  2/  4 1014.1F
LEWISETTA VA     2000   72 70  170/  8/ 10 1014.8F
RAPPAHANNOCK LGT 2000           40/  3/  4 1016.2S
STINGRAY PT      2000   69 69  130/  6/  6 1016.1S   0
YORK RVR RNG VA  2000   70      40/  4/  4 1015.0F
YORKTOWN VA      2000   71 69  100/  9/ 12 1015.2F
JAMESTOWN VA     2100   71 75   70/  4/  6   N/A     0
DOMINION TERM VA 2000   71     110/  2/  4 1015.4R
KIPTOPEKE VA     2000      70  170/  3/  4   N/A
CHES BAY BRIDGE  2000   71 67   80/  6/  7 1015.1S
CAPE HENRY VA    2000   70     140/  7/  9   N/A
CHESAPEAKE LGHT  2000   69     170/ 11/ 11 1015.8F
WILLOUBY STN VA  2000   71     360/  6/  7 1016.2S
CAPE HENRY BUOY  2012      69                N/A     4/ 7
1ST LANDING BUOY 2100   69 69  120/  6/  8 1015.1R   2/ 4
CAPE CHARLES BUO 2026      69                N/A     3/ 7   3/ 7
OFFSHORE WE BUOY 2021      70                N/A     5/ 7   5/ 7
64NM E OF VA BCH 2050   66 64  180/  4/  6 1015.2S   6/ 7   7/ 7
DUCK PIER NC     2000   65 58  140/  8/  9 1014.4F
44100 DUCK FRF   2024      67                N/A     5/ 7
44056 DUCK FRF   2011      62                N/A     4/ 8
OREGON INLET NC  2000   71 76  150/  7/ 10 1015.3F
HATTERAS NC      2000   72 75   70/  4/  6 1014.3F
DIAMOND SHLS NC  2050   78 80  160/ 21/ 25 1013.7    7/ 8   2/19
CAPE LOOC1F1C2F2C3F3C4F4C5F5C6F6C7F7C8M1C9!



USA.gov is the U.S. government's official web portal to all federal, state and local government web resources and services.